Regional Weather Roundup
Issued by NWS

Home | Current Version | Previous Version | Text Only | Print | Product List | Glossary On
Versions: 1 2 3 4 5 6 7 8 9 10 11 12 13 14 15 16 17 18 19 20 21 22 23 24 25 26 27 28 29 30 31 32 33 34 35 36 37 38 39 40 41 42 43 44 45 46 47 48 49 50
000
ASUS46 KPQR 291110
RWROR

OREGON REGIONAL WEATHER ROUNDUP
NATIONAL WEATHER SERVICE PORTLAND OR
400 AM PDT FRI MAY 29 2015

NOTE: "FAIR" INDICATES FEW OR NO CLOUDS BELOW 12,000 FEET WITH
NO SIGNIFICANT WEATHER AND/OR OBSTRUCTIONS TO VISIBILITY.

ORZ001>013-291200-
NORTHWEST OREGON


CITY           SKY/WX    TMP DP  RH WIND       PRES   REMARKS
ASTORIA        CLOUDY    53  50  89 SW3       30.03F FOG
NEWPORT        CLOUDY    50  50 100 CALM      30.08S
PORTLAND       PTCLDY    60  54  80 N5        29.99S
VANCOUVER WA   MOCLDY    59  52  77 NW3       29.98S
SCAPPOOSE      CLEAR     53  52  96 CALM      29.98S
HILLSBORO      CLEAR     55  53  93 CALM      29.98S
AURORA         PTCLDY    56  54  93 CALM      29.99S
MCMINNVILLE    PTCLDY    53  50  89 W7        30.00S
SALEM          PTCLDY    56  51  84 W3        29.98S
CORVALLIS      CLEAR     52  48  87 NW10      30.00S
EUGENE         CLEAR     54  50  86 S8        29.99F
$$

ORZ021-028-291200-
SOUTHWEST OREGON


CITY           SKY/WX    TMP DP  RH WIND       PRES   REMARKS
NORTH BEND     CLOUDY    52  50  93 N8        30.07S
BROOKINGS      CLOUDY    50  50 100 SE3       30.03F FOG
ROSEBURG       CLEAR     59  52  77 CALM      29.99F
SEXTON SUMMIT  CLEAR     61  47  59 CALM      30.05F
MEDFORD        CLEAR     61  52  72 CALM      29.98S
$$

ORZ014>016-041-291200-
COLUMBIA GORGE


CITY           SKY/WX    TMP DP  RH WIND       PRES   REMARKS
TROUTDALE      PTCLDY    58  53  84 CALM      29.97S
THE DALLES     PTCLDY    66  53  63 CALM      29.94S
$$

ORZ029>031-041-044-049-050-061>064-502-503-505>511-291200-
EASTERN OREGON


CITY           SKY/WX    TMP DP  RH WIND       PRES   REMARKS
REDMOND        PTCLDY    51  45  79 SE3       30.03F
BEND           CLEAR     52  45  76 CALM      30.05F
PRINEVILLE     CLEAR     50  43  76 CALM      30.04F
KLAMATH FALLS  CLEAR     46  41  82 CALM      30.06F
LAKEVIEW       CLEAR     39  36  87 N3        30.12F
HERMISTON      PTCLDY    54  50  86 CALM      29.94S
PENDLETON      PTCLDY    60  49  66 SE9       29.96F
JOHN DAY       CLEAR     55  43  64 E7        30.10R
MEACHAM        PTCLDY    44  41  89 CALM      30.08S
LA GRANDE      PTCLDY    52  39  62 CALM      30.05F
BAKER CITY     CLEAR     43  42  97 NE3       30.09S
BURNS          PTCLDY    45  38  76 W6        30.11F
ROME             N/A     50  43  77 E5        30.10S
ONTARIO        CLEAR     51  45  79 CALM      30.07R
$$


USA.gov is the U.S. government's official web portal to all federal, state and local government web resources and services.